Flag for Netherlands Weather past 2 weeks in Montfoort, Netherlands

Now
57 °F

Sprinkles. Broken clouds.


Feels Like: 53 °F
Forecast: 53 / 60 °F
Wind: 17 mph from Northwest

Location: Amsterdam Schiphol Airport

Current Time: Sep 5, 2015 at 10:50:32 AM

Latest Report: Sep 5, 2015 at 10:25 AM


Visibility: 5 mi

Pressure: 29.95 "Hg

Humidity: 88%

Dew point: 54 °F

Location of MontfoortLocation

Historic Weather in Montfoort — Graph

°F

Montfoort temperature yesterday

Maximum temperature yesterday: 61 °F (at 12:55 PM)
Minimum temperature yesterday: 54 °F (at 12:55 AM)
Average temperature yesterday: 57 °F

Past Weeks' High & Low Weather Summary

 TemperatureHumidityPressure
High79 °F (Aug 22, 1:55 PM)100% (Aug 24, 12:25 AM)30.21 "Hg (Aug 24, 12:25 AM)
Low48 °F (Sep 3, 3:25 AM)42% (Aug 22, 2:55 PM)29.45 "Hg (Aug 24, 4:25 PM)
Average63 °F80%29.90 "Hg
* Reported Aug 21 9:25 AM — Sep 5 9:55 AM, Montfoort, Weather by CustomWeather, © 2015

Note: Actual official high and low records may vary slightly from our data, if they occured in-between our weather recording intervals... More about our weather records

Advertising

Montfoort weather history for previous 24 hours

 ConditionsComfort  
Time TempWeatherWind HumidityBarometerVisibility
9:55 AM
Sat, Sep 5
59 °FScattered showers. Broken clouds.13 mph82%29.95 "HgN/A
9:25 AM59 °FSprinkles. Partly sunny.16 mph77%29.95 "HgN/A
8:55 AM57 °FSprinkles. Partly sunny.16 mph88%29.95 "HgN/A
8:25 AM57 °FSprinkles. Partly sunny.13 mph88%29.95 "HgN/A
7:55 AM55 °FSprinkles. Partly cloudy.12 mph100%29.95 "Hg5 mi
7:25 AM57 °FSprinkles. Partly cloudy.12 mph88%29.95 "HgN/A
6:55 AM55 °FSprinkles. Partly cloudy.8 mph88%29.92 "Hg6 mi
6:25 AM54 °FPassing clouds.10 mph88%29.92 "HgN/A
5:55 AM57 °FPassing clouds.14 mph77%29.92 "HgN/A
5:25 AM55 °FPassing clouds.12 mph88%29.92 "HgN/A
4:55 AM55 °FPassing clouds.14 mph88%29.92 "HgN/A
4:25 AM57 °FPassing clouds.13 mph82%29.92 "HgN/A
3:55 AM57 °FPassing clouds.12 mph88%29.92 "HgN/A
3:25 AM57 °FSprinkles. Passing clouds.10 mph88%29.95 "HgN/A
2:55 AM57 °FPassing clouds.7 mph88%29.92 "HgN/A
2:25 AM57 °FPassing clouds.3 mph94%29.92 "HgN/A
1:55 AM55 °FSprinkles. Passing clouds.6 mph94%29.92 "Hg6 mi
1:25 AM57 °FPassing clouds.8 mph94%29.92 "HgN/A
12:55 AM57 °FSprinkles. Passing clouds.10 mph94%29.92 "HgN/A
12:25 AM55 °FSprinkles. Passing clouds.7 mph94%29.92 "HgN/A
11:25 PM
Fri, Sep 4
54 °FPassing clouds.5 mph94%29.89 "HgN/A
10:55 PM57 °FPassing clouds.9 mph94%29.89 "HgN/A
10:25 PM59 °FSprinkles. Passing clouds.7 mph88%29.89 "HgN/A
9:55 PM59 °FSprinkles. Passing clouds.6 mph94%29.86 "HgN/A
9:25 PM59 °FSprinkles. Partly cloudy.9 mph94%29.86 "HgN/A
8:55 PM59 °FSprinkles. Broken clouds.15 mph94%29.86 "Hg5 mi
8:25 PM59 °FSprinkles. Broken clouds.15 mph94%29.86 "Hg5 mi
7:55 PM59 °FRain showers. Broken clouds.17 mph94%29.83 "Hg3 mi
7:25 PM57 °FRain showers. Broken clouds.21 mph94%29.83 "Hg3 mi
6:55 PM59 °FSprinkles. Broken clouds.18 mph94%29.83 "Hg4 mi
6:25 PM59 °FSprinkles. Broken clouds.23 mph94%29.83 "Hg4 mi
5:55 PM59 °FSprinkles. Broken clouds.18 mph94%29.83 "HgN/A
5:25 PM59 °FSprinkles. Broken clouds.20 mph94%29.83 "Hg5 mi
4:55 PM59 °FRain showers. Broken clouds.21 mph94%29.83 "Hg2 mi
4:25 PM57 °FSprinkles. Broken clouds.18 mph94%29.86 "Hg4 mi
3:55 PM55 °FSprinkles. Broken clouds.23 mph100%29.86 "Hg3 mi
3:25 PM57 °FRain showers. Scattered clouds.24 mph94%29.86 "Hg4 mi
2:55 PM59 °FSprinkles. Broken clouds.23 mph94%29.86 "HgN/A
2:25 PM59 °FSprinkles. Broken clouds.23 mph88%29.86 "HgN/A
1:55 PM59 °FSprinkles. Scattered clouds.20 mph88%29.86 "Hg6 mi
1:25 PM59 °FSprinkles. Scattered clouds.22 mph88%29.86 "HgN/A
12:55 PM61 °FScattered showers. Scattered clouds.20 mph88%29.86 "HgN/A
12:25 PM59 °FSprinkles. Scattered clouds.20 mph88%29.86 "HgN/A
11:55 AM57 °FSprinkles. Scattered clouds.21 mph94%29.89 "HgN/A
11:25 AM59 °FSprinkles. Scattered clouds.18 mph82%29.89 "Hg6 mi
10:55 AM59 °FSprinkles. Scattered clouds.15 mph88%29.86 "HgN/A
10:25 AM57 °FSprinkles. Scattered clouds.16 mph94%29.86 "HgN/A
Weather by CustomWeather, © 2015

See weather overviewHow to use our weather pages